Date String (YYYY-MM-DD hh:mm:ss) UTC,Instrument flags,Ambient pressure (hPa),Sample flow (lpm),Bypass flow (lpm),Sample temperature (°C),Ambient temperature (°C),ASC tube jacket temperature (°C),LED temperature (°C),Box temperature (°C),Sample RH (%),Span deviation,Mass concentration (μg/m³),Mass concentration (μg/m³),Mass concentration (μg/m³)
DateTimeUTC,F1_M11,P_M11,Q1_M11,Q2_M11,T1_M11,T2_M11,T3_M11,T4_M11,T5_M11,U1_M11,ZSPAN_M11,X0_M11,X2_M11,X1_M11
2022-10-21 23:00:00,,0816.3,5.00,0.00,29.8,28.7,00.0,38.5,31.7,06.6,0000.0,0007.92,0002.34,0001.62
2022-10-21 23:01:00,,0816.3,4.99,0.00,29.8,28.8,00.0,38.5,31.8,06.7,0000.0,0007.85,0002.38,0001.62
2022-10-21 23:02:00,,0816.3,5.00,0.00,29.9,28.5,00.0,38.5,31.8,06.7,0000.0,0007.75,0002.40,0001.63
2022-10-21 23:03:00,,0816.4,5.00,0.00,29.9,27.1,00.0,38.5,31.7,06.6,0000.0,0007.70,0002.38,0001.63
2022-10-21 23:04:00,,0816.3,5.01,0.00,29.8,26.7,00.0,38.5,31.7,06.6,0000.0,0007.27,0002.36,0001.62
2022-10-21 23:05:00,,0816.3,4.99,0.00,29.8,26.9,00.0,38.5,31.6,06.6,0000.0,0004.85,0002.30,0001.61
2022-10-21 23:06:00,,0816.2,5.00,0.00,29.7,27.2,00.0,38.5,31.5,06.8,0000.0,0004.06,0002.31,0001.62
2022-10-21 23:07:00,,0816.3,4.99,0.00,29.7,27.5,00.0,38.5,31.6,06.7,0000.0,0004.12,0002.32,0001.61
2022-10-21 23:08:00,,0816.4,5.00,0.00,29.7,27.7,00.0,38.5,31.6,06.7,0000.0,0004.85,0002.33,0001.61
2022-10-21 23:09:00,,0816.4,5.00,0.00,29.7,28.0,00.0,38.5,31.6,06.7,0000.0,0004.73,0002.32,0001.62
2022-10-21 23:10:00,,0816.4,5.00,0.00,29.8,28.2,00.0,38.5,31.7,06.8,0000.0,0004.92,0002.28,0001.62
2022-10-21 23:11:00,,0816.4,5.00,0.00,29.8,28.3,00.0,38.5,31.7,06.9,0000.0,0005.91,0002.27,0001.63
2022-10-21 23:12:00,,0816.4,5.00,0.00,29.8,28.4,00.0,38.5,31.8,06.7,0000.0,0005.86,0002.18,0001.61
2022-10-21 23:13:00,,0816.4,5.00,0.00,29.8,28.6,00.0,38.5,31.8,06.8,0000.0,0006.15,0002.17,0001.61
2022-10-21 23:14:00,,0816.3,5.00,0.00,29.9,28.7,00.0,38.6,31.8,06.8,0000.0,0006.22,0002.17,0001.61
2022-10-21 23:15:00,,0816.2,5.00,0.00,29.9,28.7,00.0,38.6,31.9,06.7,0000.0,0006.19,0002.15,0001.61
2022-10-21 23:16:00,,0816.2,5.00,0.00,29.9,27.6,00.0,38.6,31.7,06.7,0000.0,0006.42,0002.15,0001.60
2022-10-21 23:17:00,,0816.3,5.00,0.00,29.8,26.8,00.0,38.5,31.6,06.7,0000.0,0006.73,0002.13,0001.59
2022-10-21 23:18:00,,0816.3,4.99,0.00,29.8,26.9,00.0,38.5,31.5,06.7,0000.0,0006.86,0002.14,0001.58
2022-10-21 23:19:00,,0816.3,5.01,0.00,29.7,27.1,00.0,38.5,31.5,06.7,0000.0,0006.94,0002.10,0001.58
2022-10-21 23:20:00,,0816.2,5.00,0.00,29.7,27.4,00.0,38.5,31.5,06.7,0000.0,0007.58,0002.12,0001.57
2022-10-21 23:21:00,,0816.2,5.01,0.00,29.7,27.7,00.0,38.5,31.6,06.7,0000.0,0007.57,0002.14,0001.55
2022-10-21 23:22:00,,0816.2,5.00,0.00,29.7,27.9,00.0,38.5,31.6,06.8,0000.0,0006.94,0002.16,0001.54
2022-10-21 23:23:00,,0816.1,5.00,0.00,29.7,28.1,00.0,38.5,31.7,06.8,0000.0,0006.84,0002.18,0001.54
2022-10-21 23:24:00,,0816.1,5.00,0.00,29.8,28.2,00.0,38.5,31.7,06.7,0000.0,0006.52,0002.18,0001.54
2022-10-21 23:25:00,,0816.1,5.01,0.00,29.8,28.4,00.0,38.5,31.7,06.7,0000.0,0006.58,0002.20,0001.54
2022-10-21 23:26:00,,0816.2,5.01,0.00,29.8,28.5,00.0,38.5,31.7,06.7,0000.0,0006.73,0002.28,0001.54
2022-10-21 23:27:00,,0816.2,4.99,0.00,29.8,28.6,00.0,38.6,31.8,06.6,0000.0,0006.53,0002.29,0001.55
2022-10-21 23:28:00,,0816.1,5.00,0.00,29.9,28.7,00.0,38.6,31.8,06.6,0000.0,0006.24,0002.31,0001.55
2022-10-21 23:29:00,,0816.1,4.99,0.00,29.9,28.8,00.0,38.6,31.9,06.6,0000.0,0007.08,0002.39,0001.56
2022-10-21 23:30:00,,0816.1,5.00,0.00,29.9,28.1,00.0,38.6,31.8,06.6,0000.0,0007.23,0002.44,0001.57
2022-10-21 23:31:00,,0816.1,5.01,0.00,29.9,26.9,00.0,38.5,31.7,06.7,0000.0,0006.41,0002.50,0001.57
2022-10-21 23:32:00,,0816.1,5.01,0.00,29.9,26.8,00.0,38.5,31.7,06.7,0000.0,0006.32,0002.53,0001.59
2022-10-21 23:33:00,,0816.1,5.00,0.00,29.8,27.0,00.0,38.5,31.6,06.6,0000.0,0007.34,0002.52,0001.60
2022-10-21 23:34:00,,0816.1,4.99,0.00,29.8,27.3,00.0,38.5,31.6,06.8,0000.0,0007.91,0002.52,0001.60
2022-10-21 23:35:00,,0816.1,4.98,0.00,29.7,27.6,00.0,38.5,31.6,06.9,0000.0,0008.11,0002.57,0001.59
2022-10-21 23:36:00,,0816.2,5.00,0.00,29.7,27.8,00.0,38.5,31.6,06.9,0000.0,0008.30,0002.62,0001.59
2022-10-21 23:37:00,,0816.2,5.00,0.00,29.8,28.0,00.0,38.5,31.6,06.9,0000.0,0008.21,0002.55,0001.59
2022-10-21 23:38:00,,0816.1,5.00,0.00,29.8,28.2,00.0,38.5,31.7,06.8,0000.0,0008.54,0002.56,0001.58
2022-10-21 23:39:00,,0816.2,5.00,0.00,29.8,28.4,00.0,38.5,31.7,06.8,0000.0,0008.92,0002.54,0001.59
2022-10-21 23:40:00,,0816.3,5.01,0.00,29.8,28.5,00.0,38.6,31.8,06.8,0000.0,0008.54,0002.42,0001.58
2022-10-21 23:41:00,,0816.3,5.01,0.00,29.8,28.6,00.0,38.6,31.8,06.9,0000.0,0008.45,0002.38,0001.58
2022-10-21 23:42:00,,0816.3,5.00,0.00,29.8,28.6,00.0,38.6,31.8,06.9,0000.0,0009.05,0002.35,0001.58
2022-10-21 23:43:00,,0816.3,4.99,0.00,29.9,28.7,00.0,38.6,31.9,06.7,0000.0,0009.37,0002.34,0001.58
2022-10-21 23:44:00,,0816.3,5.00,0.00,29.9,28.6,00.0,38.6,31.9,06.7,0000.0,0008.81,0002.32,0001.58
2022-10-21 23:45:00,,0816.2,5.03,0.00,29.9,27.1,00.0,38.6,31.7,06.6,0000.0,0008.10,0002.33,0001.60
2022-10-21 23:46:00,,0816.2,4.98,0.00,29.8,26.0,00.0,38.5,31.6,06.6,0000.0,0007.90,0002.31,0001.61
2022-10-21 23:47:00,,0816.2,4.99,0.00,29.8,26.0,00.0,38.4,31.5,06.7,0000.0,0007.69,0002.26,0001.62
2022-10-21 23:48:00,,0816.2,5.02,0.00,29.7,26.3,00.0,38.4,31.3,06.7,0000.0,0008.00,0002.29,0001.64
2022-10-21 23:49:00,,0816.3,5.00,0.00,29.6,26.7,00.0,38.4,31.3,06.8,0000.0,0008.12,0002.29,0001.64
2022-10-21 23:50:00,,0816.3,5.00,0.00,29.6,27.0,00.0,38.4,31.4,06.8,0000.0,0007.70,0002.29,0001.65
2022-10-21 23:51:00,,0816.2,5.00,0.00,29.6,27.3,00.0,38.4,31.4,06.8,0000.0,0008.20,0002.36,0001.65
2022-10-21 23:52:00,,0816.2,5.01,0.00,29.6,27.6,00.0,38.4,31.4,06.8,0000.0,0007.91,0002.39,0001.65
2022-10-21 23:53:00,,0816.2,5.00,0.00,29.6,27.8,00.0,38.4,31.5,06.8,0000.0,0007.42,0002.42,0001.65
2022-10-21 23:54:00,,0816.2,5.00,0.00,29.6,27.9,00.0,38.4,31.5,06.8,0000.0,0007.58,0002.41,0001.64
2022-10-21 23:55:00,,0816.2,4.99,0.00,29.6,28.1,00.0,38.4,31.5,06.8,0000.0,0007.58,0002.41,0001.62
2022-10-21 23:56:00,,0816.2,4.99,0.00,29.6,28.2,00.0,38.4,31.6,06.7,0000.0,0007.76,0002.40,0001.62
2022-10-21 23:57:00,,0816.3,5.00,0.00,29.6,28.3,00.0,38.4,31.6,06.8,0000.0,0007.80,0002.38,0001.61
2022-10-21 23:58:00,,0816.3,4.99,0.00,29.7,28.4,00.0,38.4,31.6,06.8,0000.0,0008.54,0002.33,0001.60
2022-10-21 23:59:00,,0816.3,4.99,0.00,29.7,28.4,00.0,38.4,31.7,06.9,0000.0,0008.56,0002.34,0001.59
